Regional Weather Roundup
Issued by NWS Cleveland, OH

Home | Current Version | Previous Version | Text Only | Print | Product List | Glossary Off
Versions: 1 2 3 4 5 6 7 8 9 10 11 12 13 14 15 16 17 18 19 20 21 22 23 24 25 26 27 28 29 30 31 32 33 34 35 36 37 38 39 40 41 42 43 44 45 46 47 48 49 50

227
ASUS41 KCLE 200602
RWRCLE
OHIO REGIONAL WEATHER ROUNDUP
NATIONAL WEATHER SERVICE CLEVELAND, OH
200 AM EDT WED SEP 20 2017

NOTE: "FAIR" INDICATES FEW OR NO CLOUDS BELOW 12,000 FEET WITH NO
SIGNIFICANT WEATHER AND/OR OBSTRUCTIONS TO VISIBILITY.

OHZ001>008-015>018-024>027-034-035-043-044-200700-
   NORTHWEST OHIO

CITY           SKY/WX    TMP DP  RH WIND       PRES   REMARKS
DEFIANCE       PTCLDY    66  64  93 CALM      29.95S FOG
FINDLAY        PTCLDY    66  63  90 S5        29.96R
TOLEDO EXPRESS FOG       65  32  29 CALM      29.96R VSB 1
TOLEDO EXEC    CLOUDY    67  66  97 SE5       29.97S FOG
LIMA           MOCLDY    67  66  97 S5        29.96S
$$

OHZ009>014-019>023-028>033-038-089-200700-
   NORTHEAST OHIO

CITY           SKY/WX    TMP DP  RH WIND       PRES   REMARKS
CLE-HOPKINS    CLOUDY    69  64  84 CALM      30.00R
CLE-LAKEFRONT  CLOUDY    70  63  78 SE7       29.96S
CUY CO. ARPT   NOT AVBL
LORAIN-ELYRIA  MOCLDY    64  59  83 CALM      29.99R HAZE
ASHTABULA      CLEAR     63  63 100 CALM      30.00R
AKRON-CANTON   CLOUDY    69  63  81 S3        29.99S
WOOSTER        CLOUDY    65  64  97 CALM      30.00R
MANSFIELD      CLOUDY    68  65  90 CALM      30.00R
YOUNGSTOWN     CLOUDY    67  66  97 E5        29.99S
$$

OHZ042-051>053-060>062-070>072-077>081-200700-
  SOUTHWEST OHIO

CITY           SKY/WX    TMP DP  RH WIND       PRES   REMARKS
CINC-COVINGTON CLEAR     65  65 100 S6        29.98R
CINC-LUNKEN    FOG       64  64 100 CALM      29.98R VSB 1/4
HAMILTON       CLEAR     61  61 100 CALM      29.98R FOG
DAYTON         PTCLDY    63  62  97 SW5       29.98S
WRIGHT-PAT AFB PTCLDY    63  63 100 CALM      29.97R
DAYTON GENERAL CLEAR     66  64  93 SW5       29.97S
WILMINGTON     FOG       61  61 100 SE3       29.97F VSB 1/2
$$

OHZ036-037-039>041-045>050-054>059-063>069-073>076-082>088-200700-
  CENTRAL AND SOUTHEAST OHIO

CITY           SKY/WX    TMP DP  RH WIND       PRES   REMARKS
COLUMBUS       CLOUDY    70  68  93 CALM      29.97S
OSU AIRPORT    MOCLDY    68  68 100 CALM      29.98R
BOLTON FIELD   CLOUDY    67  66  99 CALM      29.99R
RICKENBACK AFB NOT AVBL
NEWARK         MOCLDY    66  64  93 CALM      29.98R FOG
MARION         PTCLDY    65  61  87 CALM      29.99R
LANCASTER      CLOUDY    65  64  97 CALM      29.98R
ZANESVILLE     PTCLDY    65  64  97 CALM      29.98S FOG
NEW PHILLY     NOT AVBL
$$




USA.gov is the U.S. government's official web portal to all federal, state and local government web resources and services.